This is the latest recevied weather packets stored in our database for station/object HA5CD-6. If no packets are shown the sender has not sent any weather packets the latest 10 day(s).
| Time | Temp. | Humidity | Pressure | Rain* | Wind** | Luminosity | Snow |
|---|---|---|---|---|---|---|---|
| 1777897939 | 30° C | 18% | 993 hPa | - | - | - | - |
| 1777896738 | 27.78° C | 20% | 994 hPa | - | - | - | - |
| 1777895538 | 27.22° C | 21% | 994 hPa | - | - | - | - |
| 1777894338 | 26.11° C | 23% | 994 hPa | - | - | - | - |
| 1777893738 | 26.67° C | 22% | 994 hPa | - | - | - | - |
| 1777893138 | 26.11° C | 22% | 994 hPa | - | - | - | - |
| 1777892538 | 26.67° C | 23% | 995 hPa | - | - | - | - |
| 1777890737 | 25.56° C | 23% | 995 hPa | - | - | - | - |
| 1777890137 | 26.11° C | 23% | 995 hPa | - | - | - | - |
| 1777889537 | 26.11° C | 22% | 995 hPa | - | - | - | - |
| 1777888937 | 26.67° C | 22% | 995 hPa | - | - | - | - |
| 1777888337 | 25.56° C | 22% | 996 hPa | - | - | - | - |
| 1777886537 | 26.67° C | 22% | 996 hPa | - | - | - | - |
| 1777885937 | 27.78° C | 20% | 996 hPa | - | - | - | - |
| 1777884736 | 25.56° C | 22% | 996 hPa | - | - | - | - |
| 1777883537 | 27.78° C | 20% | 996 hPa | - | - | - | - |
| 1777882936 | 27.78° C | 20% | 996 hPa | - | - | - | - |
| 1777881736 | 29.44° C | 20% | 996 hPa | - | - | - | - |
| 1777881142 | 28.33° C | 19% | 996 hPa | - | - | - | - |
| 1777879335 | 26.67° C | 22% | 996 hPa | - | - | - | - |
| 1777878743 | 27.22° C | 22% | 996 hPa | - | - | - | - |
| 1777878135 | 26.11° C | 24% | 996 hPa | - | - | - | - |
| 1777877537 | 26.11° C | 23% | 996 hPa | - | - | - | - |
| 1777876337 | 25.56° C | 25% | 996 hPa | - | - | - | - |
| 1777875735 | 24.44° C | 26% | 996 hPa | - | - | - | - |
* Rain since midnight (hover to see other rain measurements)
** Current wind speed in m/s (hover to see current wind gust speed)